"Time","Value","Approval","myLocation"
"2023-05-06 00:00",4.44573931167166,"Working","OW371"
"2023-05-06 01:00",4.44074775545105,"Working","OW371"
"2023-05-06 02:00",4.42675619923044,"Working","OW371"
"2023-05-06 03:00",4.41876464300983,"Working","OW371"
"2023-05-06 04:00",4.41577308678923,"Working","OW371"
"2023-05-06 05:00",4.42078153056862,"Working","OW371"
"2023-05-06 06:00",4.42478997434801,"Working","OW371"
"2023-05-06 07:00",4.4277984181274,"Working","OW371"
"2023-05-06 08:00",4.4298068619068,"Working","OW371"
"2023-05-06 09:00",4.43181530568619,"Working","OW371"
"2023-05-06 10:00",4.43182374946558,"Working","OW371"
"2023-05-06 11:00",4.43083219324498,"Working","OW371"
"2023-05-06 12:00",4.42484063702437,"Working","OW371"
"2023-05-06 13:00",4.41384908080376,"Working","OW371"
"2023-05-06 14:00",4.41185752458316,"Working","OW371"
"2023-05-06 15:00",4.41786596836255,"Working","OW371"
"2023-05-06 16:00",4.42387441214194,"Working","OW371"
"2023-05-06 17:00",4.42888285592133,"Working","OW371"
"2023-05-06 18:00",4.43289129970073,"Working","OW371"
"2023-05-06 19:00",4.43689974348012,"Working","OW371"
"2023-05-06 20:00",4.43990818725951,"Working","OW371"
"2023-05-06 21:00",4.44291663103891,"Working","OW371"
"2023-05-06 22:00",4.4469250748183,"Working","OW371"
"2023-05-06 23:00",4.45093351859769,"Working","OW371"
"2023-05-07 00:00",4.45394196237708,"Working","OW371"
"2023-05-07 01:00",4.45595040615648,"Working","OW371"
"2023-05-07 02:00",4.44595884993587,"Working","OW371"
"2023-05-07 03:00",4.42796729371526,"Working","OW371"
"2023-05-07 04:00",4.41597573749466,"Working","OW371"
"2023-05-07 05:00",4.41298418127405,"Working","OW371"
"2023-05-07 06:00",4.41999262505344,"Working","OW371"
"2023-05-07 07:00",4.42700106883283,"Working","OW371"
"2023-05-07 08:00",4.43300951261223,"Working","OW371"
"2023-05-07 09:00",4.43701795639162,"Working","OW371"
"2023-05-07 10:00",4.44102640017101,"Working","OW371"
"2023-05-07 11:00",4.44303484395041,"Working","OW371"
"2023-05-07 12:00",4.4380432877298,"Working","OW371"
"2023-05-07 13:00",4.42705173150919,"Working","OW371"
"2023-05-07 14:00",4.42006017528858,"Working","OW371"
"2023-05-07 15:00",4.42406861906798,"Working","OW371"
"2023-05-07 16:00",4.43207706284737,"Working","OW371"
"2023-05-07 17:00",4.43908550662676,"Working","OW371"
"2023-05-07 18:00",4.44509395040616,"Working","OW371"
"2023-05-07 19:00",4.45010239418555,"Working","OW371"
"2023-05-07 20:00",4.45511083796494,"Working","OW371"
"2023-05-07 21:00",4.46011928174434,"Working","OW371"
"2023-05-07 22:00",4.46412772552373,"Working","OW371"
"2023-05-07 23:00",4.46913616930312,"Working","OW371"
"2023-05-08 00:00",4.47214461308251,"Working","OW371"
"2023-05-08 01:00",4.47615305686191,"Working","OW371"
"2023-05-08 02:00",4.4751615006413,"Working","OW371"
"2023-05-08 03:00",4.45816994442069,"Working","OW371"
"2023-05-08 04:00",4.43717838820009,"Working","OW371"
"2023-05-08 05:00",4.42218683197948,"Working","OW371"
"2023-05-08 06:00",4.41819527575887,"Working","OW371"
"2023-05-08 07:00",4.42520371953826,"Working","OW371"
"2023-05-08 08:00",4.43521216331766,"Working","OW371"
"2023-05-08 09:00",4.44222060709705,"Working","OW371"
"2023-05-08 10:00",4.44722905087644,"Working","OW371"
"2023-05-08 11:00",4.45123749465584,"Working","OW371"
"2023-05-08 12:00",4.45024593843523,"Working","OW371"
"2023-05-08 13:00",4.44425438221462,"Working","OW371"
"2023-05-08 14:00",4.43526282599401,"Working","OW371"
"2023-05-08 15:00",4.43327126977341,"Working","OW371"
"2023-05-08 16:00",4.4402797135528,"Working","OW371"
"2023-05-08 17:00",4.44928815733219,"Working","OW371"
"2023-05-08 18:00",4.45529660111159,"Working","OW371"
"2023-05-08 19:00",4.46230504489098,"Working","OW371"
"2023-05-08 20:00",4.46731348867037,"Working","OW371"
"2023-05-08 21:00",4.47232193244976,"Working","OW371"
"2023-05-08 22:00",4.47733037622916,"Working","OW371"
"2023-05-08 23:00",4.48233882000855,"Working","OW371"
"2023-05-09 00:00",4.48634726378794,"Working","OW371"
"2023-05-09 01:00",4.49035570756734,"Working","OW371"
"2023-05-09 02:00",4.49336415134673,"Working","OW371"
"2023-05-09 03:00",4.48937259512612,"Working","OW371"
"2023-05-09 04:00",4.46838103890552,"Working","OW371"
"2023-05-09 05:00",4.44438948268491,"Working","OW371"
"2023-05-09 06:00",4.4273979264643,"Working","OW371"
"2023-05-09 07:00",4.42340637024369,"Working","OW371"
"2023-05-09 08:00",4.43041481402309,"Working","OW371"
"2023-05-09 09:00",4.43942325780248,"Working","OW371"
"2023-05-09 10:00",4.44743170158187,"Working","OW371"
"2023-05-09 11:00",4.45344014536127,"Working","OW371"
"2023-05-09 12:00",4.45644858914066,"Working","OW371"
"2023-05-09 13:00",4.45445703292005,"Working","OW371"
"2023-05-09 14:00",4.44946547669944,"Working","OW371"
"2023-05-09 15:00",4.44547392047884,"Working","OW371"
"2023-05-09 16:00",4.44848236425823,"Working","OW371"
"2023-05-09 17:00",4.45649080803762,"Working","OW371"
"2023-05-09 18:00",4.46349925181702,"Working","OW371"
"2023-05-09 19:00",4.46850769559641,"Working","OW371"
"2023-05-09 20:00",4.4735161393758,"Working","OW371"
"2023-05-09 21:00",4.47852458315519,"Working","OW371"
"2023-05-09 22:00",4.48453302693459,"Working","OW371"
"2023-05-09 23:00",4.48854147071398,"Working","OW371"
"2023-05-10 00:00",4.49254991449337,"Working","OW371"
"2023-05-10 01:00",4.49655835827277,"Working","OW371"
"2023-05-10 02:00",4.50056680205216,"Working","OW371"
"2023-05-10 03:00",4.50357524583155,"Working","OW371"
"2023-05-10 04:00",4.49758368961094,"Working","OW371"
"2023-05-10 05:00",4.47559213339034,"Working","OW371"
"2023-05-10 06:00",4.45160057716973,"Working","OW371"
"2023-05-10 07:00",4.43660902094912,"Working","OW371"
"2023-05-10 08:00",4.43161746472852,"Working","OW371"
"2023-05-10 09:00",4.43662590850791,"Working","OW371"
"2023-05-10 10:00",4.4456343522873,"Working","OW371"
"2023-05-10 11:00",4.4526427960667,"Working","OW371"
"2023-05-10 12:00",4.45765123984609,"Working","OW371"
"2023-05-10 13:00",4.46065968362548,"Working","OW371"
"2023-05-10 14:00",4.46166812740487,"Working","OW371"
"2023-05-10 15:00",4.46067657118427,"Working","OW371"
"2023-05-10 16:00",4.46068501496366,"Working","OW371"
"2023-05-10 17:00",4.46569345874305,"Working","OW371"
"2023-05-10 18:00",4.47170190252245,"Working","OW371"
"2023-05-10 19:00",4.47671034630184,"Working","OW371"
"2023-05-10 20:00",4.48171879008123,"Working","OW371"
"2023-05-10 21:00",4.48572723386062,"Working","OW371"
"2023-05-10 22:00",4.49173567764002,"Working","OW371"
"2023-05-10 23:00",4.49574412141941,"Working","OW371"
"2023-05-11 00:00",4.5007525651988,"Working","OW371"
"2023-05-11 01:00",4.5037610089782,"Working","OW371"
"2023-05-11 02:00",4.50776945275759,"Working","OW371"
"2023-05-11 03:00",4.51177789653698,"Working","OW371"
"2023-05-11 04:00",4.51378634031637,"Working","OW371"
"2023-05-11 05:00",4.50579478409577,"Working","OW371"
"2023-05-11 06:00",4.48380322787516,"Working","OW371"
"2023-05-11 07:00",4.45981167165455,"Working","OW371"
"2023-05-11 08:00",4.44482011543395,"Working","OW371"
"2023-05-11 09:00",4.44082855921334,"Working","OW371"
"2023-05-11 10:00",4.44583700299273,"Working","OW371"
"2023-05-11 11:00",4.45484544677212,"Working","OW371"
"2023-05-11 12:00",4.46185389055152,"Working","OW371"
"2023-05-11 13:00",4.46786233433091,"Working","OW371"
"2023-05-11 14:00",4.4728707781103,"Working","OW371"
"2023-05-11 15:00",4.4768792218897,"Working","OW371"
"2023-05-11 16:00",4.47888766566909,"Working","OW371"
"2023-05-11 17:00",4.48189610944848,"Working","OW371"
"2023-05-11 18:00",4.48590455322787,"Working","OW371"
"2023-05-11 19:00",4.49091299700727,"Working","OW371"
"2023-05-11 20:00",4.49492144078666,"Working","OW371"
"2023-05-11 21:00",4.49992988456605,"Working","OW371"
"2023-05-11 22:00",4.50393832834545,"Working","OW371"
"2023-05-11 23:00",4.50794677212484,"Working","OW371"
"2023-05-12 00:00",4.51195521590423,"Working","OW371"
"2023-05-12 01:00",4.51596365968363,"Working","OW371"
"2023-05-12 02:00",4.51997210346302,"Working","OW371"
"2023-05-12 03:00",4.52298054724241,"Working","OW371"
"2023-05-12 04:00",4.5259889910218,"Working","OW371"
"2023-05-12 05:00",4.5269974348012,"Working","OW371"
"2023-05-12 06:00",4.51800587858059,"Working","OW371"
"2023-05-12 07:00",4.49501432235998,"Working","OW371"
"2023-05-12 08:00",4.47302276613938,"Working","OW371"
"2023-05-12 09:00",4.45803120991877,"Working","OW371"
"2023-05-12 10:00",4.45503965369816,"Working","OW371"
"2023-05-12 11:00",4.46204809747755,"Working","OW371"
"2023-05-12 12:00",4.47105654125695,"Working","OW371"
"2023-05-12 13:00",4.47806498503634,"Working","OW371"
"2023-05-12 14:00",4.48407342881573,"Working","OW371"
"2023-05-12 15:00",4.48908187259513,"Working","OW371"
"2023-05-12 16:00",4.49309031637452,"Working","OW371"
"2023-05-12 17:00",4.49709876015391,"Working","OW371"
"2023-05-12 18:00",4.5011072039333,"Working","OW371"
"2023-05-12 19:00",4.5051156477127,"Working","OW371"
"2023-05-12 20:00",4.50912409149209,"Working","OW371"
"2023-05-12 21:00",4.51313253527148,"Working","OW371"
"2023-05-12 22:00",4.51714097905088,"Working","OW371"
"2023-05-12 23:00",4.52114942283027,"Working","OW371"
"2023-05-13 00:00",4.52415786660966,"Working","OW371"
"2023-05-13 01:00",4.52816631038905,"Working","OW371"
"2023-05-13 02:00",4.53117475416845,"Working","OW371"
"2023-05-13 03:00",4.53318319794784,"Working","OW371"
"2023-05-13 04:00",4.53419164172723,"Working","OW371"
"2023-05-13 05:00",4.53520008550663,"Working","OW371"
"2023-05-13 06:00",4.53520852928602,"Working","OW371"
"2023-05-13 07:00",4.52721697306541,"Working","OW371"
"2023-05-13 08:00",4.5072254168448,"Working","OW371"
"2023-05-13 09:00",4.4882338606242,"Working","OW371"
"2023-05-13 10:00",4.47724230440359,"Working","OW371"
"2023-05-13 11:00",4.47825074818298,"Working","OW371"
"2023-05-13 12:00",4.48525919196238,"Working","OW371"
"2023-05-13 13:00",4.49226763574177,"Working","OW371"
"2023-05-13 14:00",4.49627607952116,"Working","OW371"
"2023-05-13 15:00",4.50028452330056,"Working","OW371"
"2023-05-13 16:00",4.50429296707995,"Working","OW371"
"2023-05-13 17:00",4.50730141085934,"Working","OW371"
"2023-05-13 18:00",4.51030985463873,"Working","OW371"
"2023-05-13 19:00",4.51331829841813,"Working","OW371"
"2023-05-13 20:00",4.51632674219752,"Working","OW371"
"2023-05-13 21:00",4.51933518597691,"Working","OW371"
"2023-05-13 22:00",4.52134362975631,"Working","OW371"
"2023-05-13 23:00",4.5243520735357,"Working","OW371"
"2023-05-14 00:00",4.52636051731509,"Working","OW371"
"2023-05-14 01:00",4.52836896109448,"Working","OW371"
"2023-05-14 02:00",4.52937740487388,"Working","OW371"
"2023-05-14 03:00",4.53038584865327,"Working","OW371"
"2023-05-14 04:00",4.53139429243266,"Working","OW371"
"2023-05-14 05:00",4.53240273621206,"Working","OW371"
"2023-05-14 06:00",4.53141117999145,"Working","OW371"
"2023-05-14 07:00",4.53041962377084,"Working","OW371"
"2023-05-14 08:00",4.52142806755023,"Working","OW371"
"2023-05-14 09:00",4.50043651132963,"Working","OW371"
"2023-05-14 10:00",4.48344495510902,"Working","OW371"
"2023-05-14 11:00",4.47745339888841,"Working","OW371"
"2023-05-14 12:00",4.48146184266781,"Working","OW371"
"2023-05-14 13:00",4.4874702864472,"Working","OW371"
"2023-05-14 14:00",4.49247873022659,"Working","OW371"
"2023-05-14 15:00",4.49648717400598,"Working","OW371"
"2023-05-14 16:00",4.49849561778538,"Working","OW371"
"2023-05-14 17:00",4.50150406156477,"Working","OW371"
"2023-05-14 18:00",4.50451250534416,"Working","OW371"
"2023-05-14 19:00",4.50652094912356,"Working","OW371"
"2023-05-14 20:00",4.50852939290295,"Working","OW371"
"2023-05-14 21:00",4.51053783668234,"Working","OW371"
"2023-05-14 22:00",4.51254628046174,"Working","OW371"
"2023-05-14 23:00",4.51455472424113,"Working","OW371"
"2023-05-15 00:00",4.51756316802052,"Working","OW371"
"2023-05-15 01:00",4.51957161179991,"Working","OW371"
"2023-05-15 02:00",4.51958005557931,"Working","OW371"
"2023-05-15 03:00",4.5205884993587,"Working","OW371"
"2023-05-15 04:00",4.52159694313809,"Working","OW371"
"2023-05-15 05:00",4.52260538691749,"Working","OW371"
"2023-05-15 06:00",4.52261383069688,"Working","OW371"
"2023-05-15 07:00",4.52362227447627,"Working","OW371"
"2023-05-15 08:00",4.52063071825566,"Working","OW371"
"2023-05-15 09:00",4.50763916203506,"Working","OW371"
"2023-05-15 10:00",4.48564760581445,"Working","OW371"
"2023-05-15 11:00",4.47265604959384,"Working","OW371"
"2023-05-15 12:00",4.47066449337324,"Working","OW371"
"2023-05-15 13:00",4.47867293715263,"Working","OW371"
"2023-05-15 14:00",4.48468138093202,"Working","OW371"
"2023-05-15 15:00",4.48868982471141,"Working","OW371"
"2023-05-15 16:00",4.49269826849081,"Working","OW371"
"2023-05-15 17:00",4.4957067122702,"Working","OW371"
"2023-05-15 18:00",4.49971515604959,"Working","OW371"
"2023-05-15 19:00",4.50272359982899,"Working","OW371"
"2023-05-15 20:00",4.50573204360838,"Working","OW371"
"2023-05-15 21:00",4.50774048738777,"Working","OW371"
"2023-05-15 22:00",4.50974893116716,"Working","OW371"
"2023-05-15 23:00",4.50975737494656,"Working","OW371"
"2023-05-16 00:00",4.51076581872595,"Working","OW371"
"2023-05-16 01:00",4.51177426250534,"Working","OW371"
"2023-05-16 02:00",4.51278270628474,"Working","OW371"
"2023-05-16 03:00",4.51479115006413,"Working","OW371"
"2023-05-16 04:00",4.51679959384352,"Working","OW371"
"2023-05-16 05:00",4.51880803762292,"Working","OW371"
"2023-05-16 06:00",4.51981648140231,"Working","OW371"
"2023-05-16 07:00",4.5218249251817,"Working","OW371"
"2023-05-16 08:00",4.52183336896109,"Working","OW371"
"2023-05-16 09:00",4.51484181274049,"Working","OW371"
"2023-05-16 10:00",4.49385025651988,"Working","OW371"
"2023-05-16 11:00",4.47485870029927,"Working","OW371"
"2023-05-16 12:00",4.46686714407867,"Working","OW371"
"2023-05-16 13:00",4.47287558785806,"Working","OW371"
"2023-05-16 14:00",4.48088403163745,"Working","OW371"
"2023-05-16 15:00",4.48589247541684,"Working","OW371"
"2023-05-16 16:00",4.49090091919624,"Working","OW371"
"2023-05-16 17:00",4.49390936297563,"Working","OW371"
"2023-05-16 18:00",4.49791780675502,"Working","OW371"
"2023-05-16 19:00",4.50092625053442,"Working","OW371"
"2023-05-16 20:00",4.50393469431381,"Working","OW371"
"2023-05-16 21:00",4.5059431380932,"Working","OW371"
"2023-05-16 22:00",4.50795158187259,"Working","OW371"
"2023-05-16 23:00",4.50796002565199,"Working","OW371"
"2023-05-17 00:00",4.50496846943138,"Working","OW371"
"2023-05-17 01:00",4.50297691321077,"Working","OW371"
"2023-05-17 02:00",4.50498535699017,"Working","OW371"
"2023-05-17 03:00",4.50699380076956,"Working","OW371"
"2023-05-17 04:00",4.50900224454895,"Working","OW371"
"2023-05-17 05:00",4.51201068832835,"Working","OW371"
"2023-05-17 06:00",4.51401913210774,"Working","OW371"
"2023-05-17 07:00",4.51502757588713,"Working","OW371"
"2023-05-17 08:00",4.51603601966652,"Working","OW371"
"2023-05-17 09:00",4.51504446344592,"Working","OW371"
"2023-05-17 10:00",4.50405290722531,"Working","OW371"
"2023-05-17 11:00",4.4850613510047,"Working","OW371"
"2023-05-17 12:00",4.4730697947841,"Working","OW371"
"2023-05-17 13:00",4.47307823856349,"Working","OW371"
"2023-05-17 14:00",4.48108668234288,"Working","OW371"
"2023-05-17 15:00",4.48709512612227,"Working","OW371"
"2023-05-17 16:00",4.49210356990167,"Working","OW371"
"2023-05-17 17:00",4.49611201368106,"Working","OW371"
"2023-05-17 18:00",4.49912045746045,"Working","OW371"
"2023-05-17 19:00",4.50212890123985,"Working","OW371"
"2023-05-17 20:00",4.50613734501924,"Working","OW371"
"2023-05-17 21:00",4.50914578879863,"Working","OW371"
"2023-05-17 22:00",4.51115423257802,"Working","OW371"
"2023-05-17 23:00",4.51216267635742,"Working","OW371"
"2023-05-18 00:00",4.50817112013681,"Working","OW371"
"2023-05-18 01:00",4.4971795639162,"Working","OW371"
"2023-05-18 02:00",4.4911880076956,"Working","OW371"
"2023-05-18 03:00",4.49219645147499,"Working","OW371"
"2023-05-18 04:00",4.49620489525438,"Working","OW371"
"2023-05-18 05:00",4.49921333903378,"Working","OW371"
"2023-05-18 06:00",4.50322178281317,"Working","OW371"
"2023-05-18 07:00",4.50523022659256,"Working","OW371"
"2023-05-18 08:00",4.50823867037195,"Working","OW371"
"2023-05-18 09:00",4.50824711415135,"Working","OW371"
"2023-05-18 10:00",4.50225555793074,"Working","OW371"
"2023-05-18 11:00",4.48626400171013,"Working","OW371"
"2023-05-18 12:00",4.47027244548952,"Working","OW371"
"2023-05-18 13:00",4.46528088926892,"Working","OW371"
"2023-05-18 14:00",4.47328933304831,"Working","OW371"
"2023-05-18 15:00",4.4812977768277,"Working","OW371"
"2023-05-18 16:00",4.4873062206071,"Working","OW371"
"2023-05-18 17:00",4.49231466438649,"Working","OW371"
"2023-05-18 18:00",4.49632310816588,"Working","OW371"
"2023-05-18 19:00",4.50133155194528,"Working","OW371"
"2023-05-18 20:00",4.50533999572467,"Working","OW371"
"2023-05-18 21:00",4.50834843950406,"Working","OW371"
"2023-05-18 22:00",4.51135688328345,"Working","OW371"
"2023-05-18 23:00",4.51336532706285,"Working","OW371"
"2023-05-19 00:00",4.51237377084224,"Working","OW371"
"2023-05-19 01:00",4.49938221462163,"Working","OW371"
"2023-05-19 02:00",4.48239065840103,"Working","OW371"
"2023-05-19 03:00",4.47239910218042,"Working","OW371"
"2023-05-19 04:00",4.47440754595981,"Working","OW371"
"2023-05-19 05:00",4.48041598973921,"Working","OW371"
"2023-05-19 06:00",4.4854244335186,"Working","OW371"
"2023-05-19 07:00",4.49043287729799,"Working","OW371"
"2023-05-19 08:00",4.49444132107738,"Working","OW371"
"2023-05-19 09:00",4.49744976485678,"Working","OW371"
"2023-05-19 10:00",4.49645820863617,"Working","OW371"
"2023-05-19 11:00",4.48846665241556,"Working","OW371"
"2023-05-19 12:00",4.47647509619495,"Working","OW371"
"2023-05-19 13:00",4.46948353997435,"Working","OW371"
"2023-05-19 14:00",4.47449198375374,"Working","OW371"
"2023-05-19 15:00",4.48350042753313,"Working","OW371"
"2023-05-19 16:00",4.49050887131253,"Working","OW371"
"2023-05-19 17:00",4.49451731509192,"Working","OW371"
"2023-05-19 18:00",4.50052575887131,"Working","OW371"
"2023-05-19 19:00",4.50453420265071,"Working","OW371"
"2023-05-19 20:00",4.5095426464301,"Working","OW371"
"2023-05-19 21:00",4.51355109020949,"Working","OW371"
"2023-05-19 22:00",4.51855953398888,"Working","OW371"
"2023-05-19 23:00",4.52156797776828,"Working","OW371"
"2023-05-20 00:00",4.52457642154767,"Working","OW371"
"2023-05-20 01:00",4.51958486532706,"Working","OW371"
"2023-05-20 02:00",4.49859330910646,"Working","OW371"
"2023-05-20 03:00",4.47860175288585,"Working","OW371"
"2023-05-20 04:00",4.46761019666524,"Working","OW371"
"2023-05-20 05:00",4.46961864044463,"Working","OW371"
"2023-05-20 06:00",4.47762708422403,"Working","OW371"
"2023-05-20 07:00",4.48463552800342,"Working","OW371"
"2023-05-20 08:00",4.49064397178281,"Working","OW371"
"2023-05-20 09:00",4.49465241556221,"Working","OW371"
"2023-05-20 10:00",4.4976608593416,"Working","OW371"
"2023-05-20 11:00",4.49666930312099,"Working","OW371"
"2023-05-20 12:00",4.48967774690038,"Working","OW371"
"2023-05-20 13:00",4.48268619067978,"Working","OW371"
"2023-05-20 14:00",4.48369463445917,"Working","OW371"
"2023-05-20 15:00",4.49270307823856,"Working","OW371"
"2023-05-20 16:00",4.49971152201796,"Working","OW371"
"2023-05-20 17:00",4.50471996579735,"Working","OW371"
"2023-05-20 18:00",4.51072840957674,"Working","OW371"
"2023-05-20 19:00",4.51473685335614,"Working","OW371"
"2023-05-20 20:00",4.51974529713553,"Working","OW371"
"2023-05-20 21:00",4.52475374091492,"Working","OW371"
"2023-05-20 22:00",4.52876218469431,"Working","OW371"
"2023-05-20 23:00",4.53177062847371,"Working","OW371"
"2023-05-21 00:00",4.5357790722531,"Working","OW371"
"2023-05-21 01:00",4.53678751603249,"Working","OW371"
"2023-05-21 02:00",4.52379595981188,"Working","OW371"
"2023-05-21 03:00",4.49780440359128,"Working","OW371"
"2023-05-21 04:00",4.47481284737067,"Working","OW371"
"2023-05-21 05:00",4.46382129115006,"Working","OW371"
"2023-05-21 06:00",4.46482973492946,"Working","OW371"
"2023-05-21 07:00",4.47283817870885,"Working","OW371"
"2023-05-21 08:00",4.48184662248824,"Working","OW371"
"2023-05-21 09:00",4.48785506626764,"Working","OW371"
"2023-05-21 10:00",4.49086351004703,"Working","OW371"
"2023-05-21 11:00",4.49387195382642,"Working","OW371"
"2023-05-21 12:00",4.49188039760582,"Working","OW371"
"2023-05-21 13:00",4.48588884138521,"Working","OW371"
"2023-05-21 14:00",4.4838972851646,"Working","OW371"
"2023-05-21 15:00",4.49090572894399,"Working","OW371"
"2023-05-21 16:00",4.49991417272339,"Working","OW371"
"2023-05-21 17:00",4.50592261650278,"Working","OW371"
"2023-05-21 18:00",4.51093106028217,"Working","OW371"
"2023-05-21 19:00",4.51693950406156,"Working","OW371"
"2023-05-21 20:00",4.52194794784096,"Working","OW371"
"2023-05-21 21:00",4.52695639162035,"Working","OW371"
"2023-05-21 22:00",4.53296483539974,"Working","OW371"
"2023-05-21 23:00",4.53697327917914,"Working","OW371"
"2023-05-22 00:00",4.54098172295853,"Working","OW371"
"2023-05-22 01:00",4.54499016673792,"Working","OW371"
"2023-05-22 02:00",4.54399861051732,"Working","OW371"
"2023-05-22 03:00",4.52500705429671,"Working","OW371"
"2023-05-22 04:00",4.4980154980761,"Working","OW371"
"2023-05-22 05:00",4.47802394185549,"Working","OW371"
"2023-05-22 06:00",4.47003238563489,"Working","OW371"
"2023-05-22 07:00",4.47304082941428,"Working","OW371"
"2023-05-22 08:00",4.48204927319367,"Working","OW371"
"2023-05-22 09:00",4.49005771697307,"Working","OW371"
"2023-05-22 10:00",4.49606616075246,"Working","OW371"
"2023-05-22 11:00",4.50107460453185,"Working","OW371"
"2023-05-22 12:00",4.50408304831124,"Working","OW371"
"2023-05-22 13:00",4.50409149209064,"Working","OW371"
"2023-05-22 14:00",4.50409993587003,"Working","OW371"
"2023-05-22 15:00",4.50710837964942,"Working","OW371"
"2023-05-22 16:00",4.51311682342882,"Working","OW371"
"2023-05-22 17:00",4.51912526720821,"Working","OW371"
"2023-05-22 18:00",4.5251337109876,"Working","OW371"
"2023-05-22 19:00",4.53114215476699,"Working","OW371"
"2023-05-22 20:00",4.53715059854639,"Working","OW371"
"2023-05-22 21:00",4.54115904232578,"Working","OW371"
"2023-05-22 22:00",4.54616748610517,"Working","OW371"
"2023-05-22 23:00",4.55017592988457,"Working","OW371"
"2023-05-23 00:00",4.55418437366396,"Working","OW371"
"2023-05-23 01:00",4.55919281744335,"Working","OW371"
"2023-05-23 02:00",4.56220126122274,"Working","OW371"
"2023-05-23 03:00",4.55720970500214,"Working","OW371"
"2023-05-23 04:00",4.53621814878153,"Working","OW371"
"2023-05-23 05:00",4.51322659256092,"Working","OW371"
"2023-05-23 06:00",4.49723503634032,"Working","OW371"
"2023-05-23 07:00",4.49324348011971,"Working","OW371"
"2023-05-23 08:00",4.4972519238991,"Working","OW371"
"2023-05-23 09:00",4.5082603676785,"Working","OW371"
"2023-05-23 10:00",4.51526881145789,"Working","OW371"
"2023-05-23 11:00",4.52227725523728,"Working","OW371"
"2023-05-23 12:00",4.52728569901667,"Working","OW371"
"2023-05-23 13:00",4.53229414279607,"Working","OW371"
"2023-05-23 14:00",4.53530258657546,"Working","OW371"
"2023-05-23 15:00",4.53831103035485,"Working","OW371"
"2023-05-23 16:00",4.54331947413425,"Working","OW371"
"2023-05-23 17:00",4.54932791791364,"Working","OW371"
"2023-05-23 18:00",4.55333636169303,"Working","OW371"
"2023-05-23 19:00",4.55834480547242,"Working","OW371"
"2023-05-23 20:00",4.56335324925182,"Working","OW371"
"2023-05-23 21:00",4.56836169303121,"Working","OW371"
"2023-05-23 22:00",4.5733701368106,"Working","OW371"
"2023-05-23 23:00",4.57737858059,"Working","OW371"
"2023-05-24 00:00",4.58238702436939,"Working","OW371"
"2023-05-24 01:00",4.58539546814878,"Working","OW371"
"2023-05-24 02:00",4.58940391192817,"Working","OW371"
"2023-05-24 03:00",4.59241235570757,"Working","OW371"